Probability
0 0 0 0 0 0 0 0 0 0 0 0 0 0 0 0 0 0 0 0 0 0 0 0 0 0 0 0 0 0 0 0 0 0 0 0 0 0 0 0 0 0 0
0 0 0 0 0 0 0 0 0 0 0 0 0 0 0 0 0 0 0 0 0 0 0 0 0 0 0 0 0 0 0 0 0 0 0 0 0 0 0 0 0 0 0
0 0 0 0 0 0 0 0 0 0 0 0 0 0 0 0 0 0 0 0 0 0 0 0 0 0 0 0 0 0 0 0 0 0 0 0 0 0 0 0 0 0 0
0 0 0 0 0 0 0 0 0 0 0 0 0 0 0 0 0 0 0 0 0 0 0 0 0 0 0 0 0 0 0 0 0 0 0 0 0 0 0 0 0 0 0
0 0 0 0 0 0 0 0 0 0 0 0 0 0 0 0 0 0 0 0 0 0 0 0 0 0 0 0 0 0 0 0 0 0 0 0 0 0 0 0 0 0 0
0 0 0 0 0 0 0 0 0 0 0 0 0 0 0 0 0 0 0 0 0 0 0 0 0 0 0 0 0 0 0 0 0 0 0 0 0 0 0 0 0 0 0
0 0 0 0 0 0 0 0 0 0 0 0 0 0 0 0 0 0 0 0 0 0 0 0 0 0 0 0 0 0 0 0 0 0 0 0 0 0 0 0 0 0 0
0 0 0 0 0 0 0 0 0 0 0 0 0 0 0 0 0 0 0 0 0 0 0 0 0 0 0 0 0 0 0 0 0 0 0 0 0 0 0 0 0 0 0
0 0 0 0 0 0 0 0 0 0 0 0 0 0 0 0 0 0 0 0 0 0 0 0 0 0 0 0 0 0 0 0 0 0 0 0 0 0 0 0 0 0 0
0 0 0 0 0 0 0 0 0 0 0 0 0 0 0 0 0 0 0 0 0 0 0 0 0 0 0 0 0 0 0 0 0 0 0 0 0 0 0 0 0 0 0
0 0 0 0 0 0 0 0 0 0 0 0 0 0 0 0 0 0 0 0 0 0 0 0 0 0 0 0 0 0 0 0 0 0 0 0 0 0 0 0 0 0 0
0 0 0 0 0 0 0 0 0 0 0 0 0 0 0 0 0 0 0 0 0 0 0 0 0 0 0 0 0 0 0 0 0 0 0 0 0 0 0 0 0 0 0
0 0 0 0 0 0 0 0 0 0 0 0 0 0 0 0 0 0 0 0 0 0 0 0 0 0 0 0 0 0 0 0 0 0 0 0 0 0 0 0 0 0 0
0 0 0 0 0 0 0 0 0 0 0 0 0 0 0 0 0 0 0 0 0 0 0 0 0 0 0 0 0 0 0 0 0 0 0 0 0 0 0 0 0 0 0
0 0 0 0 0 0 0 0 0 0 0 0 0 0 0 0 0 0 0 0 0 0 0 0 0 0 0 0 0 0 0 0 0 0 0 0 0 0 0 0 0 0 0
0 0 0 0 0 0 0 0 0 0 0 0 0 0 0 0 0 0 0 0 0 0 0 0 0 0 0 0 0 0 0 0 0 0 0 0 0 0 0 0 0 0 0
0 0 0 0 0 0 0 0 0 0 0 0 0 0 0 0 0 0 0 0 0 0 0 0 0 0 0 0 0 0 0 0 0 0 0 0 0 0 0 0 0 0 0
0 0 0 0 0 0 0 0 0 0 0 0 0 0 0 0 0 0 0 0 0 0 0 0 0 0 0 0 0 0 0 0 0 0 0 0 0 0 0 0 0 0 0
0 0 0 0 0 0 0 0 0 0 0 0 0 0 0 0 0 0 0 0 0 0 0 0 0 0 0 0 0 0 0 0 0 0 0 0 0 0 0 0 0 0 0
0 0 0 0 0 0 0 0 0 0 0 0 0 0 0 0 0 0 0 0 0 0 0 0 0 0 0 0 0 0 0 0 0 0 0 0 0 0 0 0 0 0 0
0 0 0 0 0 0 0 0 0 0 0 0 0 0 0 0 0 0 0 0 0 0 0 0 0 0 0 0 0 0 0 0 0 0 0 0 0 0 0 0 0 0 0
0 0 0 0 0 0 0 0 0 0 0 0 0 0 0 0 0 0 0 0 0 0 0 0 0 0 0 0 0 0 0 0 0 0 0 0 0 0 0 0 0 0 0
0 0 0 0 0 0 0 0 0 0 0 0 0 0 0 0 0 0 0 0 0 0 0 0 0 0 0 0 0 0 0 0 0 0 0 0 0 0 0 0 0 0 0
0 0 0 0 0 0 0 0 0 0 0 0 0 0 0 0 0 0 0 0 0 0 0 0 0 0 0 0 0 0 0 0 0 0 0 0 0 0 0 0 0 0 0
0 0 0 0 0 0 0 0 0 0 0 0 0 0 0 0 0 0 0 0 0 0 0 0 0 0 0 0 0 0 0 0 0 0 0 0 0 0 0 0 0 0 0
0 0 0 0 0 0 0 0 0 0 0 0 0 0 0 0 0 0 0 0 0 0 0 0 0 0 0 0 0 0 0 0 0 0 0 0 0 0 0 0 0 0 0
Wind_Speed
3 4 4 5 5 5 5 5 5 5 5 6 6 6 6 6 6 6 6 6 6 5 5 5 5 5 4 3 3 3 4 4 5 4 3 3 4 4 4 4 4 5 4
3 4 4 4 5 5 5 5 5 5 5 6 6 6 6 6 7 7 7 7 7 6 6 6 6 5 5 4 4 4 4 5 5 5 4 4 5 5 5 5 4 4 5
3 4 4 4 5 5 5 5 5 5 5 5 6 6 7 7 7 7 7 7 7 7 7 7 6 6 6 5 5 5 4 4 5 4 4 3 3 3 4 5 5 5 5
3 4 4 4 5 5 5 5 5 5 6 6 6 6 6 7 7 7 7 7 7 6 6 7 7 7 7 6 6 6 4 4 4 4 4 3 3 3 4 4 4 4 4
3 4 4 4 4 4 5 5 5 5 6 6 6 6 6 6 6 7 7 7 7 7 6 6 6 6 7 6 5 5 5 5 4 4 4 4 4 3 4 3 5 5 5
3 4 3 3 3 4 4 4 5 5 5 5 6 6 6 5 7 9 7 7 7 7 7 6 6 7 7 9 9 8 8 7 6 5 5 6 6 5 4 4 4 4 5
3 3 3 3 3 4 4 4 5 5 5 5 6 6 6 7 9 9 9 7 7 7 7 6 5 5 6 7 8 9 9 10 10 7 8 8 7 6 5 6 6 6 6
3 3 3 3 3 3 3 4 5 4 5 5 6 6 6 7 9 9 9 7 7 7 7 7 7 7 6 7 6 7 8 8 9 9 9 8 7 6 6 6 6 6 6
3 4 3 3 3 3 4 4 4 5 5 5 5 6 6 7 8 9 8 6 6 7 7 7 7 8 8 9 7 7 7 7 8 10 10 9 8 7 5 3 3 4 5
4 4 4 4 4 4 5 4 4 4 4 4 4 5 6 6 8 9 9 5 5 5 5 6 8 8 9 10 8 7 8 7 5 5 7 7 6 6 7 6 5 5 4
3 3 3 4 4 4 4 3 3 3 3 4 4 5 5 6 7 9 9 5 5 5 5 5 6 10 11 11 9 7 8 6 5 5 5 5 4 4 5 5 5 6 6
3 3 3 3 3 3 3 3 3 3 4 4 4 4 4 4 6 8 10 9 7 6 6 5 5 9 11 11 9 8 8 5 4 4 4 5 4 4 4 4 5 5 5
2 3 3 3 2 3 3 3 3 3 3 3 3 4 4 3 5 8 9 10 10 7 5 7 8 9 9 8 9 8 5 4 4 5 5 5 4 4 3 3 3 3 4
3 3 2 2 2 2 2 3 3 3 4 4 4 4 4 4 4 3 4 5 6 7 5 5 6 7 7 6 5 5 5 5 5 5 5 4 3 3 3 3 3 3 3
3 3 2 2 2 2 3 3 4 4 4 4 4 4 4 5 5 5 4 4 4 4 3 3 3 3 4 4 4 4 4 4 5 4 4 4 3 4 4 3 3 3 4
2 2 2 2 2 2 2 2 4 5 6 7 7 6 5 7 6 6 7 7 7 6 4 4 4 4 4 4 4 4 4 5 4 4 4 4 4 4 4 3 3 4 4
3 3 2 2 2 2 2 2 3 3 4 6 7 8 8 8 8 7 7 7 6 6 5 5 5 5 4 4 4 4 4 4 4 4 5 5 4 4 4 4 4 4 4
3 3 3 2 2 2 3 3 3 3 3 3 4 6 7 7 7 6 6 5 5 5 5 5 5 5 4 4 4 4 4 4 4 4 4 4 4 4 5 5 5 5 4
3 2 2 2 2 2 2 3 2 3 3 3 3 3 4 5 5 4 4 4 4 4 4 5 4 4 4 4 4 4 4 4 5 4 4 5 4 5 5 5 5 5 5
2 3 2 2 2 2 2 2 2 2 3 2 3 3 2 2 2 2 2 3 3 4 4 4 4 4 4 4 4 4 4 5 5 5 4 4 4 5 5 6 5 5 5
2 2 2 2 2 2 2 2 3 3 3 3 3 3 4 3 3 3 3 3 3 4 4 4 4 4 4 4 4 5 5 5 5 5 4 4 4 5 5 5 5 5 4
2 2 2 2 2 2 2 3 3 3 3 3 3 3 4 3 3 3 3 4 3 3 3 3 3 3 4 4 4 5 5 5 5 5 5 4 5 5 4 4 4 4 4
2 2 2 2 2 3 3 3 3 3 3 3 3 3 3 3 3 4 4 4 4 3 3 3 4 4 3 3 4 4 5 5 5 5 5 5 5 5 4 5 6 5 5
2 2 3 2 2 3 3 3 3 3 3 3 3 3 3 4 4 4 4 4 4 4 3 3 4 5 6 5 4 4 4 4 4 4 6 5 5 5 4 5 5 6 5
2 3 3 3 3 3 3 3 3 4 4 4 4 4 4 4 4 5 4 4 5 5 5 5 4 5 6 7 6 5 6 6 5 4 5 5 6 6 5 5 5 5 5
3 3 3 3 3 3 4 4 4 4 4 4 4 4 4 4 4 5 4 4 4 4 5 5 5 6 7 6 7 8 7 7 6 6 5 4 5 5 5 5 6 5 6
Wind_Direction
225 225 222 217 215 215 219 220 219 217 213 210 209 205 205 205 203 204 207 205 209 213 212 213 219 219 220 220 219 222 229 233 247 259 265 270 268 275 280 279 281 285 285
234 227 226 222 217 216 220 223 219 216 213 211 209 207 208 208 207 208 209 208 209 213 213 214 220 218 221 221 219 222 226 228 239 256 266 267 269 275 280 282 287 289 285
234 227 225 220 219 221 224 225 222 219 214 211 209 209 209 210 211 212 213 212 215 217 216 215 218 215 220 219 222 224 225 227 235 246 260 271 276 277 286 286 289 287 289
236 230 228 225 223 225 226 224 222 220 217 215 216 215 214 213 214 214 214 215 217 220 221 221 221 218 222 220 221 223 223 225 229 240 252 262 269 278 277 285 290 287 288
233 232 234 232 227 222 221 220 220 221 221 219 218 219 218 215 213 212 211 216 217 221 224 225 225 225 228 226 223 218 216 224 228 236 248 258 261 268 266 274 279 291 284
240 241 243 232 225 223 222 219 218 220 220 219 220 218 219 219 213 212 211 218 220 222 226 228 228 225 226 228 228 226 221 221 226 233 244 250 256 261 263 265 276 288 282
250 253 249 242 235 232 226 221 220 220 217 220 224 223 224 224 217 214 214 221 223 225 228 228 229 229 226 230 231 232 234 236 234 235 243 248 252 249 251 256 256 264 275
251 252 251 247 244 243 233 228 229 225 219 220 223 226 230 227 221 221 217 225 230 231 231 230 231 232 228 228 232 234 239 240 240 240 246 250 254 250 241 250 260 272 288
248 251 248 242 239 237 235 237 234 229 226 225 227 227 229 230 222 222 220 227 232 235 235 235 234 236 231 227 231 238 245 249 246 243 252 257 258 251 245 247 248 255 274
255 257 253 242 237 236 237 238 238 232 233 230 233 233 232 235 226 221 221 227 234 238 238 237 233 237 236 225 228 234 242 247 246 248 251 255 252 241 230 230 233 243 262
276 267 258 247 241 241 242 239 233 230 230 230 236 238 237 239 234 226 222 226 232 237 238 239 239 239 240 234 232 235 243 246 240 243 249 249 246 239 234 238 239 238 245
268 261 260 255 247 241 235 235 227 219 222 227 233 244 242 238 235 234 230 230 235 237 242 244 245 244 243 240 238 243 242 237 237 238 242 244 244 243 246 251 252 256 262
269 268 266 258 247 238 227 224 224 220 222 227 232 243 248 241 238 237 238 237 237 240 247 250 252 251 246 242 240 238 231 228 229 234 241 247 250 252 255 259 264 269 279
259 265 262 253 249 239 232 222 223 223 227 228 232 240 248 246 239 235 237 239 239 243 251 253 252 250 245 244 241 232 229 231 232 238 247 254 254 243 241 246 255 254 269
264 262 262 254 250 246 244 237 235 241 238 239 243 240 242 249 247 236 236 237 234 237 237 243 241 240 236 237 237 233 230 229 232 238 240 244 245 243 247 244 246 247 258
267 269 268 264 257 252 255 267 252 253 261 260 260 258 260 261 261 246 242 241 239 224 220 232 235 236 238 239 238 238 233 231 232 233 233 234 237 239 247 248 243 244 252
256 260 259 258 258 259 258 259 275 281 270 269 268 267 264 264 258 252 245 242 237 219 225 235 238 240 242 242 242 243 244 239 231 230 232 232 234 237 237 239 241 244 249
254 250 247 249 255 256 255 254 255 262 276 280 286 285 280 277 272 259 245 240 237 226 233 239 241 243 243 244 243 245 249 246 235 233 234 231 229 231 233 235 237 238 246
258 253 252 256 255 257 258 256 254 255 263 276 293 301 302 294 289 274 250 236 235 238 239 243 244 244 243 243 244 245 245 246 242 236 235 232 229 230 233 234 236 235 241
261 263 263 257 253 248 248 248 249 252 259 263 269 283 301 295 278 278 259 251 246 247 246 246 246 247 246 243 241 241 244 245 243 237 237 235 231 231 234 234 232 231 236
266 261 255 256 251 248 246 248 250 251 255 265 270 277 283 272 270 273 269 259 255 256 255 253 249 246 244 243 241 240 242 245 244 243 238 236 233 234 234 232 232 231 233
259 262 259 256 256 251 250 250 248 249 255 264 279 287 284 278 274 273 272 272 269 266 262 257 255 251 245 243 242 242 243 245 244 242 243 237 233 232 230 228 227 227 223
255 257 261 261 258 256 252 249 249 252 258 266 274 276 272 270 272 274 276 277 277 272 266 259 260 263 260 255 251 247 247 249 246 241 240 237 234 230 227 228 225 223 219
258 257 259 261 259 257 255 256 255 255 258 263 266 266 266 268 274 278 283 285 283 281 278 269 263 264 267 266 262 256 255 257 254 245 239 236 235 233 229 228 225 219 216
260 255 254 255 257 259 260 261 260 261 262 264 266 267 269 270 272 275 278 282 284 281 280 279 273 270 268 267 267 265 262 260 257 249 240 235 233 230 227 227 223 216 213
264 261 259 256 255 255 256 259 261 263 263 264 264 265 267 268 270 274 278 279 282 283 281 276 272 273 274 270 268 268 266 261 252 242 234 230 229 229 223 224 221 216 213